SCP
1 1 1 1 1 1 1 1 1 1 1 1 1 1 1 1 0 0 0 1 1 1 1 1 1 1 1 1 1 1 1 1 1 1 1 0 0 0 0 0 0 0 0
0 1 1 1 1 1 1 1 1 1 1 1 1 1 1 1 1 1 1 1 1 1 1 1 1 1 1 1 1 1 1 1 1 1 0 0 0 0 1 1 0 0 0
1 1 1 1 1 1 1 1 1 1 1 1 1 1 1 1 1 1 1 1 1 1 1 1 1 0 0 0 1 1 1 1 0 0 0 0 0 0 1 1 1 0 0
1 1 1 1 1 1 1 1 1 1 1 1 1 1 1 1 1 1 1 1 1 1 1 1 1 0 0 0 0 1 1 0 0 0 0 0 0 0 1 1 1 1 0
1 1 1 1 1 1 1 1 1 1 1 1 1 1 1 1 1 1 1 1 1 1 1 1 1 1 0 0 0 0 0 0 0 0 0 0 0 0 0 1 1 1 1
0 1 1 1 1 1 1 1 1 1 1 1 1 1 1 1 1 1 1 1 1 1 0 0 1 1 0 0 0 0 0 0 0 0 0 0 0 0 0 0 1 1 1
0 0 1 1 1 1 1 1 1 1 1 1 1 1 1 1 1 1 1 1 1 1 0 0 1 1 1 0 0 0 0 0 0 0 0 0 0 0 0 0 0 1 0
0 0 1 1 1 1 1 1 1 1 1 1 1 1 1 1 1 1 1 1 1 1 0 0 1 1 1 0 0 0 0 0 0 0 0 0 0 0 1 0 0 0 0
0 0 0 0 1 1 1 1 1 1 1 1 1 1 1 1 1 1 1 1 1 1 1 1 1 1 1 0 0 0 0 0 0 0 0 0 0 1 1 1 0 0 1
0 0 0 0 0 1 1 1 1 1 1 1 1 1 1 1 1 1 1 1 1 1 1 1 1 0 0 0 0 0 0 0 0 0 0 0 0 1 1 1 1 1 1
0 0 0 0 0 0 1 1 1 1 1 1 1 1 1 1 1 1 1 1 1 1 1 1 1 0 0 0 0 0 0 0 0 0 0 0 0 1 1 1 1 1 1
0 0 0 0 0 0 0 0 1 1 1 1 1 1 1 1 1 1 1 1 1 1 1 1 1 0 0 0 0 0 0 0 0 0 0 0 1 1 1 1 1 1 1
0 0 0 0 0 0 0 0 0 1 1 1 1 1 1 1 1 1 1 1 1 1 1 1 1 1 1 0 0 0 0 0 0 0 0 1 1 1 1 1 1 1 1
0 0 0 0 0 0 0 0 0 0 1 1 1 1 1 1 1 1 1 1 1 1 2 2 2 1 1 1 0 0 0 0 0 0 0 1 1 1 1 1 1 1 1
0 0 0 0 0 0 0 0 0 0 1 0 0 1 1 1 0 0 0 1 1 2 2 2 2 2 1 1 1 1 0 0 0 0 0 0 1 1 1 1 1 1 1
1 1 1 0 0 0 0 0 0 0 1 1 0 1 1 0 0 0 0 0 1 2 2 2 2 1 1 1 1 1 0 0 0 0 0 0 1 1 1 1 1 1 1
1 1 1 0 0 0 0 0 0 1 1 1 1 1 1 1 0 0 0 0 1 1 1 2 1 1 1 1 1 0 0 0 0 0 0 0 0 0 1 0 0 1 1
1 1 1 1 1 1 0 0 0 1 1 1 1 1 1 1 1 1 0 0 0 1 1 1 1 1 1 1 1 0 0 0 0 0 0 0 0 0 0 0 0 1 1
1 1 1 1 1 1 1 1 1 1 1 1 1 1 1 1 1 1 1 1 0 0 1 1 1 1 1 1 0 0 0 0 0 0 0 0 0 0 0 0 0 1 1
1 1 2 2 2 1 1 1 1 2 2 2 1 1 1 1 1 1 1 1 1 1 1 1 1 1 1 1 1 0 0 0 0 0 0 0 0 0 0 0 0 1 1
1 2 2 2 2 1 2 2 2 3 3 2 2 2 2 2 2 1 1 1 1 1 1 1 1 1 1 1 1 1 0 0 0 0 0 0 0 0 0 0 0 1 1
1 2 2 2 2 2 2 3 3 4 4 4 4 4 3 2 2 1 1 1 1 1 1 1 1 1 1 1 1 1 1 0 0 0 0 0 0 0 0 0 1 1 1
1 1 2 2 2 2 2 3 5 5 6 6 6 6 5 3 2 2 1 1 1 1 1 1 2 2 1 1 1 1 1 0 0 0 0 0 0 0 0 0 1 1 1
1 1 2 2 2 2 3 4 6 7 8 8 8 8 6 4 2 1 1 1 1 1 1 2 2 1 1 1 0 0 0 0 0 0 0 0 0 0 0 0 0 1 1
2 2 2 2 2 2 3 4 6 7 8 8 8 7 6 4 2 1 1 1 1 1 2 2 1 1 0 0 0 0 0 0 0 0 0 0 0 0 0 0 0 0 0
2 2 3 3 2 2 2 4 6 6 7 8 7 6 5 3 1 1 1 1 1 1 2 2 1 0 0 0 0 0 0 0 0 0 0 0 0 0 0 0 0 0 0
Wind_Speed
2 2 1 5 7 8 9 9 9 10 10 10 10 10 10 11 10 10 10 11 11 12 12 13 14 14 14 14 14 14 14 14 14 14 14 14 14 13 13 14 12 10 14
1 0 3 5 7 8 9 9 9 9 10 10 10 10 11 10 10 10 11 11 12 12 13 14 14 14 14 14 14 14 14 14 13 13 13 12 13 13 12 13 12 9 13
2 1 3 6 7 8 8 9 9 9 9 10 10 10 11 10 10 10 11 12 12 13 13 13 13 13 13 13 13 13 13 13 12 12 11 7 9 11 11 12 12 12 12
2 2 3 6 7 8 8 8 8 9 9 9 9 10 10 10 10 10 11 12 12 13 13 13 13 13 13 12 12 12 12 12 12 10 6 6 6 10 11 11 12 12 12
2 2 3 6 7 7 7 8 8 8 8 9 9 9 9 10 10 11 11 11 12 12 13 12 12 12 12 12 12 12 12 12 10 8 6 5 5 9 10 11 11 11 11
2 2 3 6 6 6 7 7 8 8 8 8 8 8 8 9 10 11 11 11 12 12 12 12 12 11 12 12 12 12 11 10 8 6 5 5 4 8 9 10 10 10 10
2 2 3 5 6 6 6 6 7 7 8 8 7 8 8 9 10 10 10 11 11 11 11 11 11 11 11 11 11 10 10 9 6 5 5 4 4 7 8 9 10 10 9
3 3 2 4 5 5 5 5 6 6 7 7 7 7 8 9 9 9 9 10 10 10 10 9 9 9 9 9 9 9 8 7 6 5 4 4 5 6 8 8 10 9 9
3 3 2 2 2 4 4 5 5 6 7 6 7 7 8 8 8 8 8 8 8 8 8 8 8 8 7 7 7 7 7 7 5 4 4 3 6 7 8 9 9 9 9
3 3 2 2 2 1 1 4 5 5 6 6 6 7 7 7 7 7 6 7 7 7 7 7 7 6 6 6 7 7 6 6 4 4 2 3 7 8 8 8 8 9 9
2 2 2 2 2 1 1 2 3 5 5 5 5 6 5 3 3 3 5 6 6 6 6 6 6 5 5 5 6 6 5 2 3 3 2 4 7 8 8 8 8 8 7
1 1 1 1 1 2 1 2 2 2 3 3 3 3 2 2 2 3 3 4 4 4 4 4 4 5 3 2 3 4 2 3 2 2 2 4 6 8 8 8 7 7 8
1 1 1 0 1 2 2 2 2 2 2 3 3 3 2 2 2 2 1 2 2 2 2 3 3 2 2 2 2 2 2 2 2 1 2 4 5 7 7 7 7 7 7
2 1 1 1 1 2 2 2 2 2 2 1 2 2 2 2 2 1 1 1 1 1 2 2 2 2 3 3 3 3 3 2 1 1 1 3 4 5 6 6 6 6 7
3 2 2 2 2 2 2 1 2 2 1 1 1 2 2 2 2 2 1 1 1 1 2 2 2 2 2 3 3 3 2 2 2 1 1 3 4 4 5 5 5 5 5
3 3 2 2 2 2 2 1 1 2 1 2 1 1 2 2 2 2 2 1 1 1 2 2 2 2 2 2 3 3 3 2 2 2 1 1 3 4 4 3 4 4 5
4 3 3 3 3 3 2 2 2 1 1 1 1 1 2 2 2 2 2 1 1 1 2 2 3 2 2 3 3 3 2 2 2 2 2 1 1 2 2 2 2 3 4
4 3 3 3 4 3 2 2 2 2 1 1 1 2 2 2 2 2 2 1 1 2 2 2 2 3 3 3 2 2 2 2 2 2 2 2 1 1 1 1 0 1 2
5 4 3 3 3 3 3 2 2 2 2 1 1 2 2 2 2 3 2 2 2 2 2 2 3 3 3 3 3 3 2 2 2 2 3 2 2 2 1 2 2 2 1
4 4 3 3 3 4 3 2 2 2 1 1 1 1 2 2 2 3 2 2 2 2 2 2 3 3 3 3 4 3 3 3 2 2 2 2 2 2 2 2 2 2 3
4 4 4 4 4 4 2 2 2 1 1 1 1 1 2 2 2 2 2 2 2 2 2 3 3 4 3 3 3 3 3 3 3 2 2 2 2 2 2 2 1 1 1
5 5 5 4 4 4 3 2 2 2 1 1 1 1 1 2 2 2 2 2 2 2 3 3 3 3 2 1 2 2 1 2 2 2 2 1 2 1 1 1 1 1 1
5 6 6 5 5 4 4 3 3 2 2 1 1 1 1 1 1 2 2 2 2 3 3 3 3 4 2 1 1 2 2 1 0 2 2 1 1 1 1 1 1 1 1
7 5 5 5 5 4 5 4 4 3 2 1 1 1 1 1 1 2 2 2 2 2 3 3 3 2 3 2 1 1 1 2 2 0 1 1 1 0 0 0 0 1 1
6 6 5 5 4 4 5 5 4 2 2 1 1 1 1 1 1 1 2 2 2 2 3 3 3 2 2 2 2 1 2 1 1 2 1 1 1 0 0 0 0 0 1
6 6 5 5 4 4 5 5 4 4 4 3 2 1 1 0 1 0 1 1 2 2 3 3 3 3 3 3 2 2 2 2 2 2 2 1 1 1 1 0 0 0 1
Wind_Direction
286 297 94 102 106 111 112 111 108 109 109 108 109 111 114 115 115 114 116 115 112 115 117 114 113 113 112 111 110 110 114 119 122 121 121 123 126 128 129 127 125 123 123
189 275 129 111 108 110 111 110 110 111 111 110 110 112 113 111 111 114 116 115 112 111 111 112 112 112 111 111 111 112 114 115 117 119 119 121 123 126 128 127 127 127 126
111 116 128 115 110 110 112 111 110 112 112 110 109 109 111 109 113 114 115 114 113 112 113 114 112 113 113 113 113 114 116 115 115 116 113 114 121 126 128 129 129 128 127
130 118 120 116 115 115 114 112 110 109 109 108 106 102 108 108 113 114 114 113 112 111 113 114 113 115 115 115 116 116 116 117 115 112 106 113 123 127 128 130 130 131 131
109 117 136 125 120 120 116 116 114 112 112 109 107 105 106 108 108 112 111 113 112 112 113 114 113 114 115 117 118 116 116 116 115 108 105 107 115 131 133 133 133 135 136
119 123 141 132 126 125 121 121 123 125 123 117 114 112 110 110 110 112 114 115 114 114 114 115 114 113 115 118 118 118 119 119 113 111 112 118 125 140 142 143 141 140 139
114 113 131 137 131 126 123 124 128 127 125 120 118 116 114 114 114 115 117 117 116 115 115 115 115 113 114 116 117 119 121 121 116 118 121 127 137 146 148 146 144 141 140
105 85 98 137 135 128 125 125 126 128 126 122 122 120 118 118 117 118 118 119 119 118 118 118 116 114 115 118 117 119 124 126 121 125 128 136 150 157 153 153 150 148 146
83 76 53 53 101 126 134 133 129 130 130 125 123 121 122 123 123 122 123 124 123 122 121 121 119 120 118 119 121 123 126 122 118 130 141 143 159 163 159 159 157 157 155
66 57 48 35 33 46 113 139 129 131 132 128 127 127 124 124 126 125 123 126 126 126 125 127 127 126 119 118 118 122 118 114 120 128 134 150 162 163 163 163 161 159 161
75 38 38 39 29 30 86 132 113 119 124 124 129 127 114 97 99 112 122 132 131 130 129 130 132 126 118 115 118 121 112 116 125 125 135 157 162 164 167 168 164 164 168
132 52 38 38 28 28 78 80 64 71 80 81 93 99 90 92 94 101 115 125 129 127 126 125 126 122 111 99 110 112 108 120 123 130 143 155 168 173 177 177 172 174 175
172 136 98 47 46 57 59 70 63 61 66 74 92 101 104 94 92 80 84 83 82 94 90 97 93 97 110 113 113 116 119 121 123 133 156 168 171 178 183 181 178 176 178
143 167 134 111 85 74 75 73 73 70 65 77 103 113 112 110 107 106 102 86 74 82 91 88 94 97 103 113 122 123 123 126 130 136 156 167 174 180 179 177 173 170 172
159 168 153 133 124 105 98 85 90 88 85 86 86 97 113 118 117 108 104 99 100 104 106 102 99 100 98 103 109 110 115 122 135 139 143 156 162 166 166 169 165 169 177
177 171 150 147 145 122 119 121 100 89 86 86 77 79 103 114 118 114 99 87 90 105 106 107 106 99 95 97 93 96 102 109 110 118 122 140 142 147 155 165 174 179 181
179 164 158 160 140 135 138 139 112 91 90 88 78 78 102 118 131 123 108 98 89 96 96 94 94 90 93 93 90 89 93 93 97 99 98 89 109 147 164 176 192 196 202
170 165 174 166 145 146 137 124 107 95 99 95 90 92 108 122 131 120 115 105 94 94 101 109 106 96 92 95 89 75 76 84 93 91 91 86 74 60 70 88 103 175 214
175 168 159 150 141 139 121 101 92 92 95 93 97 99 102 118 125 122 121 113 104 97 97 111 101 108 108 101 92 76 65 73 83 96 98 100 93 74 58 40 43 61 73
166 158 152 138 126 113 96 84 73 72 71 73 85 102 109 105 112 119 118 113 109 100 93 100 103 99 109 110 95 75 59 58 64 72 93 97 95 89 75 61 42 32 42
155 153 152 144 140 129 117 111 102 86 68 79 86 102 120 116 117 125 126 109 106 110 114 115 110 104 94 102 95 72 49 52 57 56 72 82 83 89 86 70 50 30 11
169 168 162 161 157 156 144 131 128 120 99 85 72 77 101 126 136 141 140 132 126 120 114 114 114 109 107 105 109 108 71 27 28 42 59 89 87 81 81 78 57 35 11
178 179 178 175 168 162 146 114 93 73 57 59 74 71 60 97 111 115 135 138 137 137 137 140 140 136 142 122 98 131 141 181 12 19 34 53 67 72 52 53 52 18 9
188 180 174 171 168 162 151 147 148 152 164 188 160 131 71 85 111 132 140 142 143 142 145 157 142 141 139 148 104 80 118 146 148 130 7 34 54 77 348 12 1 355 343
181 175 172 165 167 163 162 164 159 159 164 130 109 112 75 38 51 100 136 142 149 155 158 155 144 145 144 152 150 135 104 82 109 148 191 318 357 358 309 254 296 311 311
170 169 166 166 174 169 168 166 167 170 164 151 154 155 129 56 24 53 141 146 154 159 166 165 162 160 159 157 162 164 160 160 168 157 172 215 266 324 350 37 52 302 298